Weather History for Robinson, IL

Change the Weather History Date:

Thursday, January 2, 2014

  Actual Average (KLWV) Record (KLWV)
Temperature  
Mean Temperature 23 °F 31 °F  
Max Temperature 36 °F 39 °F 70 °F (2006)
Min Temperature 10 °F 23 °F -2 °F (2001)
Degree Days  
Heating Degree Days 42 34  
Month to date heating degree days 68  
Since 1 July heating degree days 1867  
Cooling Degree Days 0 0  
Month to date cooling degree days 0  
Year to date cooling degree days 0  
Moisture  
Dew Point 18 °F    
Average Humidity 88    
Maximum Humidity 100    
Minimum Humidity 70    
Precipitation  
Precipitation 0.07 in 0.09 in 0.64 in (1999)
Month to date precipitation 0.19  
Year to date precipitation 0.19  
Sea Level Pressure  
Sea Level Pressure 30.17 in    
Wind  
Wind Speed 11 mph (NNW)    
Max Wind Speed 22 mph    
Max Gust Speed 31 mph    
Visibility 6 miles    
Events Rain , Snow    
T = Trace of Precipitation, MM = Missing Value Source: NWS Daily Summary

Daily Weather History Graph

Daily Weather History Graph

Search for Another Location

Airport:

Trip Planner

Search our weather history database for the weather conditions in past years. The results will help you decide how hot, cold, wet, or windy it might be!

Date:

Astronomy

Jan. 02, 2014 Rise Set
Actual Time 7:09 AM CST 4:39 PM CST
Civil Twilight 6:39 AM CST 5:09 PM CST
Nautical Twilight 6:06 AM CST 5:43 PM CST
Astronomical Twilight 5:34 AM CST 6:15 PM CST
Moon 7:51 AM CST (1/2) 6:35 PM CST (1/2)
Length of Visible Light 10h 29m
Length of Day
9h 30m
Waxing Crescent, 3% of the Moon is Illuminated
Jan 2
Waxing Crescent
Jan 7
First Quarter
Jan 15
Full
Jan 23
Last Quarter
Jan 30
New

Hourly Weather History & Observations

Time (CST) Temp. Windchill Dew Point Humidity Pressure Visibility Wind Dir Wind Speed Gust Speed Precip Events Conditions
12:15 AM 36.0 °F 29.6 °F 34.7 °F 95% 29.99 in 7.0 mi North 8.1 mph - N/A Rain Light Rain
12:35 AM 34.5 °F 27.3 °F 34.0 °F 98% 29.98 in 4.0 mi North 9.2 mph - N/A Snow Light Snow
12:55 AM 33.8 °F 28.6 °F 33.8 °F 100% 29.98 in 2.5 mi North 5.8 mph - 0.02 in Snow Light Snow
1:15 AM 33.4 °F 30.4 °F 33.3 °F 99% 29.97 in 1.5 mi North 3.5 mph - 0.01 in Snow Light Snow
1:35 AM 33.3 °F 28.9 °F 33.3 °F 100% 29.96 in 1.8 mi North 4.6 mph - 0.02 in Snow Light Snow
1:55 AM 33.3 °F 28.9 °F 33.3 °F 100% 29.96 in 2.0 mi North 4.6 mph - 0.02 in Snow Light Snow
2:15 AM 32.9 °F 28.5 °F 32.9 °F 100% 29.96 in 1.8 mi North 4.6 mph - 0.01 in Snow Light Snow
2:35 AM 32.4 °F 26.9 °F 32.4 °F 100% 29.96 in 2.5 mi North 5.8 mph - 0.02 in Snow Light Snow
2:55 AM 32.0 °F 25.6 °F 32.0 °F 100% 29.96 in 3.0 mi North 6.9 mph - 0.02 in Snow Light Snow
3:15 AM 31.5 °F 24.9 °F 31.5 °F 100% 29.96 in 4.0 mi North 6.9 mph - 0.01 in Snow Light Snow
3:35 AM 29.8 °F 20.9 °F 29.7 °F 99% 29.96 in 3.0 mi NNW 10.4 mph - 0.01 in Snow Light Snow
3:55 AM 28.6 °F 18.7 °F 27.9 °F 97% 29.97 in 2.0 mi NNW 11.5 mph - 0.01 in Snow Light Snow
4:15 AM 27.7 °F 17.1 °F 27.0 °F 97% 29.97 in 1.2 mi North 12.7 mph - N/A Snow Light Snow
4:35 AM 26.6 °F 18.2 °F 26.1 °F 98% 29.98 in 2.0 mi NNW 8.1 mph - N/A Snow Light Snow
4:55 AM 23.9 °F 12.9 °F 22.8 °F 96% 29.98 in 2.0 mi NW 11.5 mph - N/A Snow Light Snow
5:15 AM 23.0 °F 12.4 °F 21.7 °F 95% 29.99 in 2.0 mi NNW 10.4 mph - N/A Snow Light Snow
5:35 AM 22.3 °F 9.2 °F 20.8 °F 94% 30.00 in 1.8 mi NNW 15.0 mph 19.6 mph N/A Snow Light Snow
5:55 AM 21.7 °F 9.6 °F 20.1 °F 93% 30.00 in 3.0 mi NNW 12.7 mph 18.4 mph N/A Snow Light Snow
6:15 AM 21.2 °F 9.5 °F 19.4 °F 93% 30.01 in 2.5 mi NW 11.5 mph 18.4 mph N/A Snow Light Snow
6:35 AM 19.8 °F 5.4 °F 18.0 °F 93% 30.02 in 3.0 mi NW 16.1 mph 20.7 mph N/A Snow Light Snow
6:55 AM 19.4 °F 5.0 °F 17.4 °F 92% 30.02 in 3.0 mi NNW 16.1 mph 23.0 mph N/A Snow Light Snow
7:15 AM 19.2 °F 4.7 °F 17.1 °F 91% 30.03 in 3.0 mi NNW 16.1 mph 21.9 mph N/A Snow Light Snow
7:35 AM 18.9 °F 4.3 °F 16.7 °F 91% 30.04 in 1.5 mi NNW 16.1 mph - N/A Snow Light Snow
7:55 AM 18.5 °F 4.9 °F 16.3 °F 91% 30.05 in 2.5 mi NNW 13.8 mph 23.0 mph N/A Snow Light Snow
8:15 AM 18.9 °F 3.8 °F 16.3 °F 90% 30.06 in 4.0 mi NNW 17.3 mph - N/A Snow Light Snow
8:35 AM 18.5 °F 3.8 °F 15.8 °F 89% 30.08 in 5.0 mi NNW 16.1 mph 21.9 mph N/A   Overcast
8:55 AM 19.0 °F 4.0 °F 15.8 °F 87% 30.09 in 10.0 mi NNW 17.3 mph 21.9 mph N/A   Overcast
9:15 AM 19.4 °F 4.1 °F 16.2 °F 87% 30.10 in 10.0 mi NNW 18.4 mph 23.0 mph N/A   Overcast
9:35 AM 20.1 °F 5.0 °F 16.5 °F 86% 30.11 in 10.0 mi NNW 18.4 mph 25.3 mph N/A   Overcast
9:55 AM 20.3 °F 6.6 °F 16.7 °F 86% 30.11 in 10.0 mi NNW 15.0 mph 21.9 mph N/A   Overcast
10:15 AM 20.8 °F 7.3 °F 16.9 °F 85% 30.12 in 10.0 mi NNW 15.0 mph - N/A Snow Light Snow
10:35 AM 21.2 °F 8.3 °F 17.4 °F 85% 30.12 in 7.0 mi NNW 13.8 mph 21.9 mph N/A Snow Light Snow
10:55 AM 20.8 °F 6.8 °F 17.4 °F 87% 30.13 in 4.0 mi NW 16.1 mph 20.7 mph N/A Snow Light Snow
11:10 AM 20.8 °F 5.5 °F 16.9 °F 85% 30.12 in 3.0 mi NNW 19.6 mph 26.5 mph N/A Snow Light Snow
11:40 AM 21.0 °F 5.4 °F 16.7 °F 83% 30.12 in 4.0 mi NNW 20.7 mph 26.5 mph N/A Snow Light Snow
11:55 AM 21.2 °F 5.2 °F 16.7 °F 83% 30.12 in 4.0 mi NNW 21.9 mph 31.1 mph N/A Snow Light Snow
12:15 PM 21.2 °F 6.8 °F 17.2 °F 85% 30.12 in 4.0 mi NNW 17.3 mph 21.9 mph N/A Snow Light Snow
12:35 PM 21.6 °F 6.9 °F 17.6 °F 85% 30.12 in 4.0 mi NNW 18.4 mph 25.3 mph N/A Snow Light Snow
12:55 PM 21.9 °F 7.8 °F 17.8 °F 84% 30.13 in 4.0 mi NW 17.3 mph 21.9 mph N/A Snow Light Snow
1:20 PM 22.1 °F 7.2 °F 17.8 °F 83% 30.13 in 4.0 mi NW 19.6 mph 25.3 mph N/A Snow Light Snow
1:35 PM 22.1 °F 9.5 °F 18.7 °F 87% 30.14 in 1.8 mi NNW 13.8 mph - N/A Snow Light Snow
1:55 PM 22.5 °F 8.9 °F 18.5 °F 85% 30.14 in 3.0 mi NNW 16.1 mph 23.0 mph N/A Snow Light Snow
2:15 PM 23.0 °F 7.6 °F 18.5 °F 83% 30.15 in 3.0 mi NW 21.9 mph 25.3 mph N/A Snow Light Snow
2:35 PM 23.0 °F 8.7 °F 17.1 °F 78% 30.16 in 5.0 mi North 18.4 mph 29.9 mph N/A Snow Light Snow
2:55 PM 22.6 °F 7.1 °F 17.1 °F 79% 30.18 in 4.0 mi NNW 21.9 mph 27.6 mph N/A Snow Light Snow
3:15 PM 22.1 °F 7.6 °F 16.3 °F 79% 30.20 in 7.0 mi North 18.4 mph 26.5 mph N/A Snow Light Snow
3:35 PM 22.1 °F 6.8 °F 16.3 °F 79% 30.22 in 7.0 mi North 20.7 mph 28.8 mph N/A Snow Light Snow
3:55 PM 21.7 °F 7.1 °F 15.4 °F 77% 30.23 in 7.0 mi NNW 18.4 mph 28.8 mph N/A   Overcast
4:15 PM 21.2 °F 5.6 °F 14.4 °F 75% 30.24 in 10.0 mi NNW 20.7 mph 26.5 mph N/A   Overcast
4:35 PM 20.7 °F 4.9 °F 13.1 °F 73% 30.25 in 10.0 mi NNW 20.7 mph 31.1 mph N/A   Scattered Clouds
4:55 PM 20.3 °F 5.2 °F 12.0 °F 70% 30.27 in 10.0 mi NNW 18.4 mph 23.0 mph N/A   Scattered Clouds
5:15 PM 19.9 °F 6.7 °F 11.7 °F 70% 30.29 in 10.0 mi NNW 13.8 mph 18.4 mph N/A   Mostly Cloudy
5:35 PM 19.4 °F 6.0 °F 12.7 °F 75% 30.30 in 10.0 mi NNW 13.8 mph 19.6 mph N/A   Mostly Cloudy
5:55 PM 19.2 °F 5.8 °F 13.5 °F 78% 30.31 in 10.0 mi NNW 13.8 mph - N/A   Scattered Clouds
6:15 PM 19.0 °F 6.1 °F 14.9 °F 84% 30.33 in 10.0 mi NNW 12.7 mph - N/A   Scattered Clouds
6:35 PM 18.5 °F 4.3 °F 15.4 °F 88% 30.35 in 10.0 mi NW 15.0 mph - N/A   Scattered Clouds
6:55 PM 18.5 °F 4.9 °F 14.9 °F 86% 30.36 in 10.0 mi NW 13.8 mph 19.6 mph N/A Snow Light Snow
7:15 PM 17.2 °F 3.3 °F 13.8 °F 86% 30.37 in 10.0 mi NW 13.8 mph - N/A Snow Light Snow
7:35 PM 16.3 °F 4.1 °F 12.9 °F 86% 30.38 in 10.0 mi NNW 10.4 mph - N/A   Clear
7:55 PM 15.6 °F 4.0 °F 12.2 °F 86% 30.39 in 10.0 mi NNW 9.2 mph - N/A   Clear
8:15 PM 14.9 °F 2.3 °F 11.5 °F 86% 30.39 in 10.0 mi NNW 10.4 mph - N/A   Clear
8:35 PM 14.4 °F 3.3 °F 10.9 °F 86% 30.40 in 10.0 mi NW 8.1 mph - N/A   Clear
8:55 PM 14.0 °F 3.9 °F 10.6 °F 86% 30.40 in 10.0 mi NNW 6.9 mph - N/A   Clear
9:15 PM 13.6 °F 2.5 °F 10.0 °F 86% 30.41 in 10.0 mi NNW 8.1 mph - N/A   Clear
9:21 PM 12.2 °F 0.7 °F 10.4 °F 92% 30.41 in 10.0 mi NNW 8.1 mph - N/A   Clear
9:35 PM 13.1 °F 2.8 °F 9.7 °F 86% 30.41 in 10.0 mi North 6.9 mph - N/A   Clear
9:55 PM 12.7 °F 2.4 °F 9.3 °F 86% 30.42 in 10.0 mi NNW 6.9 mph - N/A   Clear
10:15 PM 12.4 °F 3.1 °F 8.8 °F 85% 30.43 in 10.0 mi NNW 5.8 mph - N/A   Clear
10:35 PM 12.0 °F 1.5 °F 8.6 °F 86% 30.43 in 10.0 mi NNW 6.9 mph - N/A   Clear
10:55 PM 11.3 °F 0.7 °F 8.1 °F 87% 30.42 in 10.0 mi NNW 6.9 mph - N/A   Clear
11:15 PM 11.1 °F -0.6 °F 7.7 °F 86% 30.44 in 10.0 mi NW 8.1 mph - N/A   Scattered Clouds
11:35 PM 10.6 °F 1.0 °F 7.2 °F 86% 30.44 in 10.0 mi NNW 5.8 mph - N/A Snow Light Snow
11:55 PM 10.2 °F 0.6 °F 6.8 °F 86% 30.45 in 10.0 mi NW 5.8 mph - N/A Snow Light Snow